Time,TemperatureF,DewpointF,PressureIn,WindDirection,WindDirectionDegrees,WindSpeedMPH,WindSpeedGustMPH,Humidity,HourlyPrecipIn,Conditions,Clouds,dailyrainin,SoftwareType,DateUTC
2013-03-06 00:00:00,39.9,27.1,29.76,NE,49,5.0,11.0,60,0.00,,,0.00,meteohub,2013-03-06 05:00:00,
2013-03-06 00:01:00,39.9,27.1,29.76,West,274,6.0,11.0,60,0.00,,,0.00,meteohub,2013-03-06 05:01:00,
2013-03-06 00:06:00,39.7,26.6,29.76,North,4,6.0,9.0,59,0.00,,,0.00,meteohub,2013-03-06 05:06:00,
2013-03-06 00:11:00,39.6,26.4,29.76,NNE,30,6.0,9.0,59,0.00,,,0.00,meteohub,2013-03-06 05:11:00,
2013-03-06 00:16:00,39.6,26.4,29.76,NNE,15,3.0,9.0,59,0.00,,,0.00,meteohub,2013-03-06 05:16:00,
2013-03-06 00:21:00,39.4,26.2,29.76,ENE,66,2.0,8.0,59,0.00,,,0.00,meteohub,2013-03-06 05:21:00,
2013-03-06 00:26:00,39.2,26.1,29.76,West,274,4.0,7.0,59,0.00,,,0.00,meteohub,2013-03-06 05:26:00,
2013-03-06 00:31:00,39.0,25.9,29.79,North,357,3.0,8.0,59,0.00,,,0.00,meteohub,2013-03-06 05:31:00,
2013-03-06 00:36:00,38.8,25.7,29.79,WNW,284,3.0,8.0,59,0.00,,,0.00,meteohub,2013-03-06 05:36:00,
2013-03-06 00:41:00,38.8,25.7,29.79,North,2,6.0,8.0,59,0.00,,,0.00,meteohub,2013-03-06 05:41:00,
2013-03-06 00:46:00,38.7,25.2,29.79,North,0,0.0,8.0,58,0.00,,,0.00,meteohub,2013-03-06 05:46:00,
2013-03-06 00:51:00,38.7,25.5,29.79,NNW,337,4.0,8.0,59,0.00,,,0.00,meteohub,2013-03-06 05:51:00,
2013-03-06 00:56:00,38.5,25.0,29.79,WNW,303,6.0,8.0,58,0.00,,,0.00,meteohub,2013-03-06 05:56:00,
2013-03-06 01:02:00,38.3,24.8,29.79,North,353,8.0,9.0,58,0.00,,,0.00,meteohub,2013-03-06 06:02:00,
2013-03-06 01:07:00,38.1,24.6,29.79,North,357,5.0,9.0,58,0.00,,,0.00,meteohub,2013-03-06 06:07:00,
2013-03-06 01:12:00,38.1,24.6,29.79,West,275,6.0,9.0,58,0.00,,,0.00,meteohub,2013-03-06 06:12:00,
2013-03-06 01:17:00,38.1,24.6,29.79,West,274,3.0,8.0,58,0.00,,,0.00,meteohub,2013-03-06 06:17:00,
2013-03-06 01:22:00,38.1,24.6,29.79,NW,307,5.0,8.0,58,0.00,,,0.00,meteohub,2013-03-06 06:22:00,
2013-03-06 01:27:00,38.1,24.6,29.79,WSW,258,4.0,8.0,58,0.00,,,0.00,meteohub,2013-03-06 06:27:00,
2013-03-06 01:32:00,38.1,24.3,29.79,ENE,61,8.0,10.0,57,0.00,,,0.00,meteohub,2013-03-06 06:32:00,
2013-03-06 01:37:00,38.1,24.3,29.79,North,0,5.0,10.0,57,0.00,,,0.00,meteohub,2013-03-06 06:37:00,
2013-03-06 01:42:00,37.9,23.7,29.79,NNW,344,5.0,10.0,56,0.00,,,0.00,meteohub,2013-03-06 06:42:00,
2013-03-06 01:47:00,37.8,23.5,29.79,NW,309,8.0,10.0,56,0.00,,,0.00,meteohub,2013-03-06 06:47:00,
2013-03-06 01:52:00,37.6,22.8,29.79,North,0,6.0,10.0,55,0.00,,,0.00,meteohub,2013-03-06 06:52:00,
2013-03-06 01:57:00,37.6,22.8,29.79,WNW,291,3.0,15.0,55,0.00,,,0.00,meteohub,2013-03-06 06:57:00,
2013-03-06 02:02:00,37.4,22.6,29.79,NNE,18,5.0,15.0,55,0.00,,,0.00,meteohub,2013-03-06 07:02:00,
2013-03-06 02:07:00,37.4,22.6,29.79,WSW,246,3.0,15.0,55,0.00,,,0.00,meteohub,2013-03-06 07:07:00,
2013-03-06 02:12:00,37.2,22.5,29.79,WSW,258,4.0,12.0,55,0.00,,,0.00,meteohub,2013-03-06 07:12:00,
2013-03-06 02:18:00,37.0,21.9,29.79,West,268,10.0,10.0,54,0.00,,,0.00,meteohub,2013-03-06 07:18:00,
2013-03-06 02:23:00,37.0,21.9,29.79,NNW,348,4.0,6.0,54,0.00,,,0.00,meteohub,2013-03-06 07:23:00,
2013-03-06 02:28:00,36.9,21.7,29.79,NNW,338,6.0,10.0,54,0.00,,,0.00,meteohub,2013-03-06 07:28:00,
2013-03-06 02:33:00,36.9,21.7,29.79,NW,307,3.0,10.0,54,0.00,,,0.00,meteohub,2013-03-06 07:33:00,
2013-03-06 02:38:00,36.7,21.2,29.79,WSW,257,0.0,8.0,53,0.00,,,0.00,meteohub,2013-03-06 07:38:00,
2013-03-06 02:43:00,36.7,21.6,29.79,North,9,0.0,8.0,54,0.00,,,0.00,meteohub,2013-03-06 07:43:00,
2013-03-06 02:48:00,36.3,21.2,29.79,West,267,4.0,8.0,54,0.00,,,0.00,meteohub,2013-03-06 07:48:00,
2013-03-06 02:53:00,36.3,21.2,29.79,North,357,4.0,6.0,54,0.00,,,0.00,meteohub,2013-03-06 07:53:00,
2013-03-06 02:58:00,36.3,21.2,29.79,South,170,4.0,8.0,54,0.00,,,0.00,meteohub,2013-03-06 07:58:00,
2013-03-06 03:03:00,36.3,21.2,29.79,North,350,9.0,9.0,54,0.00,,,0.00,meteohub,2013-03-06 08:03:00,
2013-03-06 03:08:00,36.1,21.0,29.79,North,2,6.0,10.0,54,0.00,,,0.00,meteohub,2013-03-06 08:08:00,
2013-03-06 03:13:00,36.0,21.0,29.79,West,271,5.0,10.0,54,0.00,,,0.00,meteohub,2013-03-06 08:13:00,
2013-03-06 03:18:00,36.0,21.0,29.79,West,263,3.0,10.0,54,0.00,,,0.00,meteohub,2013-03-06 08:18:00,
2013-03-06 03:23:00,36.0,21.0,29.79,NNW,345,3.0,8.0,54,0.00,,,0.00,meteohub,2013-03-06 08:23:00,
2013-03-06 03:29:00,35.8,21.2,29.79,WNW,294,0.0,8.0,55,0.00,,,0.00,meteohub,2013-03-06 08:29:00,
2013-03-06 03:34:00,35.8,21.2,29.79,NW,308,8.0,8.0,55,0.00,,,0.00,meteohub,2013-03-06 08:34:00,
2013-03-06 03:39:00,35.6,21.0,29.79,NNE,31,4.0,11.0,55,0.00,,,0.00,meteohub,2013-03-06 08:39:00,
2013-03-06 03:44:00,35.6,21.0,29.79,NNW,345,7.0,11.0,55,0.00,,,0.00,meteohub,2013-03-06 08:44:00,
2013-03-06 03:49:00,35.4,21.7,29.79,North,357,4.0,13.0,57,0.00,,,0.00,meteohub,2013-03-06 08:49:00,
2013-03-06 03:54:00,35.4,21.7,29.79,NW,313,5.0,13.0,57,0.00,,,0.00,meteohub,2013-03-06 08:54:00,
2013-03-06 03:59:00,35.2,21.9,29.79,NNW,348,4.0,13.0,58,0.00,,,0.00,meteohub,2013-03-06 08:59:00,
2013-03-06 04:04:00,35.1,21.7,29.79,North,6,3.0,9.0,58,0.00,,,0.00,meteohub,2013-03-06 09:04:00,
2013-03-06 04:09:00,35.1,22.1,29.79,North,11,0.0,8.0,59,0.00,,,0.00,meteohub,2013-03-06 09:09:00,
2013-03-06 04:14:00,34.9,21.9,29.79,NW,305,8.0,8.0,59,0.00,,,0.00,meteohub,2013-03-06 09:14:00,
2013-03-06 04:19:00,34.7,22.3,29.79,NNE,22,3.0,8.0,60,0.00,,,0.00,meteohub,2013-03-06 09:19:00,
2013-03-06 04:24:00,34.7,22.6,29.79,North,1,4.0,8.0,61,0.00,,,0.00,meteohub,2013-03-06 09:24:00,
2013-03-06 04:29:00,34.7,23.0,29.79,NE,46,3.0,8.0,62,0.00,,,0.00,meteohub,2013-03-06 09:29:00,
2013-03-06 04:34:00,34.9,23.2,29.79,WNW,297,4.0,6.0,62,0.00,,,0.00,meteohub,2013-03-06 09:34:00,
2013-03-06 04:39:00,34.7,23.4,29.79,NE,40,4.0,5.0,63,0.00,,,0.00,meteohub,2013-03-06 09:39:00,
2013-03-06 04:44:00,34.5,23.2,29.82,North,2,0.0,6.0,63,0.00,,,0.00,meteohub,2013-03-06 09:44:00,
2013-03-06 04:49:00,34.5,23.2,29.82,North,1,6.0,8.0,63,0.00,,,0.00,meteohub,2013-03-06 09:49:00,
2013-03-06 04:54:00,34.3,22.6,29.82,NNE,29,2.0,8.0,62,0.00,,,0.00,meteohub,2013-03-06 09:54:00,
2013-03-06 04:59:00,34.3,22.6,29.82,NNW,329,6.0,8.0,62,0.00,,,0.00,meteohub,2013-03-06 09:59:00,
2013-03-06 05:04:00,34.2,22.1,29.82,NNE,31,5.0,8.0,61,0.00,,,0.00,meteohub,2013-03-06 10:04:00,
2013-03-06 05:09:00,34.0,21.2,29.82,NNW,334,9.0,9.0,59,0.00,,,0.00,meteohub,2013-03-06 10:09:00,
2013-03-06 05:14:00,34.0,20.3,29.82,North,5,6.0,8.0,57,0.00,,,0.00,meteohub,2013-03-06 10:14:00,
2013-03-06 05:19:00,34.0,19.9,29.82,NNE,12,9.0,11.0,56,0.00,,,0.00,meteohub,2013-03-06 10:19:00,
2013-03-06 05:24:00,34.0,19.6,29.82,NNW,328,9.0,11.0,55,0.00,,,0.00,meteohub,2013-03-06 10:24:00,
2013-03-06 05:29:00,33.8,18.9,29.82,NW,318,4.0,10.0,54,0.00,,,0.00,meteohub,2013-03-06 10:29:00,
2013-03-06 05:34:00,33.6,18.7,29.82,NNE,12,5.0,10.0,54,0.00,,,0.00,meteohub,2013-03-06 10:34:00,
2013-03-06 05:39:00,33.6,18.3,29.82,North,4,4.0,10.0,53,0.00,,,0.00,meteohub,2013-03-06 10:39:00,
2013-03-06 05:44:00,33.6,18.3,29.82,NNW,342,3.0,9.0,53,0.00,,,0.00,meteohub,2013-03-06 10:44:00,
2013-03-06 05:50:00,33.6,17.8,29.82,NE,43,3.0,11.0,52,0.00,,,0.00,meteohub,2013-03-06 10:50:00,
2013-03-06 05:55:00,33.6,17.8,29.82,WNW,289,4.0,11.0,52,0.00,,,0.00,meteohub,2013-03-06 10:55:00,
2013-03-06 06:00:00,33.4,17.2,29.82,NNW,338,4.0,11.0,51,0.00,,,0.00,meteohub,2013-03-06 11:00:00,
2013-03-06 06:05:00,33.3,16.7,29.82,North,11,4.0,10.0,50,0.00,,,0.00,meteohub,2013-03-06 11:05:00,
2013-03-06 06:10:00,33.3,16.7,29.82,ENE,62,2.0,10.0,50,0.00,,,0.00,meteohub,2013-03-06 11:10:00,
2013-03-06 06:15:00,33.1,16.5,29.85,East,99,0.0,10.0,50,0.00,,,0.00,meteohub,2013-03-06 11:15:00,
2013-03-06 06:20:00,33.1,16.5,29.85,North,1,3.0,5.0,50,0.00,,,0.00,meteohub,2013-03-06 11:20:00,
2013-03-06 06:25:00,32.9,16.3,29.85,North,353,0.0,5.0,50,0.00,,,0.00,meteohub,2013-03-06 11:25:00,
2013-03-06 06:30:00,32.9,16.3,29.85,NNW,334,4.0,4.0,50,0.00,,,0.00,meteohub,2013-03-06 11:30:00,
2013-03-06 06:35:00,32.9,16.3,29.85,North,1,0.0,6.0,50,0.00,,,0.00,meteohub,2013-03-06 11:35:00,
2013-03-06 06:40:00,32.7,16.2,29.85,North,1,4.0,6.0,50,0.00,,,0.00,meteohub,2013-03-06 11:40:00,
2013-03-06 06:45:00,32.9,16.3,29.85,NW,317,3.0,6.0,50,0.00,,,0.00,meteohub,2013-03-06 11:45:00,
2013-03-06 06:50:00,32.7,16.2,29.85,NNW,343,2.0,6.0,50,0.00,,,0.00,meteohub,2013-03-06 11:50:00,
2013-03-06 06:55:00,32.7,16.2,29.85,North,353,0.0,6.0,50,0.00,,,0.00,meteohub,2013-03-06 11:55:00,
2013-03-06 07:00:00,32.7,16.2,29.85,North,353,4.0,6.0,50,0.00,,,0.00,meteohub,2013-03-06 12:00:00,
2013-03-06 07:05:00,32.7,16.2,29.85,NW,325,6.0,6.0,50,0.00,,,0.00,meteohub,2013-03-06 12:05:00,
2013-03-06 07:10:00,32.7,16.2,29.85,North,0,0.0,6.0,50,0.00,,,0.00,meteohub,2013-03-06 12:10:00,
2013-03-06 07:15:00,32.9,16.3,29.85,West,276,4.0,6.0,50,0.00,,,0.00,meteohub,2013-03-06 12:15:00,
2013-03-06 07:20:00,33.1,16.5,29.85,West,267,3.0,8.0,50,0.00,,,0.00,meteohub,2013-03-06 12:20:00,
2013-03-06 07:25:00,33.1,16.5,29.85,West,271,0.0,8.0,50,0.00,,,0.00,meteohub,2013-03-06 12:25:00,
2013-03-06 07:30:00,33.4,16.9,29.88,North,10,4.0,7.0,50,0.00,,,0.00,meteohub,2013-03-06 12:30:00,
2013-03-06 07:35:00,35.4,18.1,29.88,NNW,338,5.0,8.0,49,0.00,,,0.00,meteohub,2013-03-06 12:35:00,
2013-03-06 07:40:00,42.3,21.4,29.88,NNE,31,3.0,8.0,43,0.00,,,0.00,meteohub,2013-03-06 12:40:00,
2013-03-06 07:45:00,45.1,21.7,29.88,North,3,4.0,6.0,39,0.00,,,0.00,meteohub,2013-03-06 12:45:00,
2013-03-06 07:50:00,47.5,23.2,29.88,NNW,333,4.0,6.0,38,0.00,,,0.00,meteohub,2013-03-06 12:50:00,
2013-03-06 07:55:00,49.6,23.7,29.88,North,1,0.0,6.0,36,0.00,,,0.00,meteohub,2013-03-06 12:55:00,
2013-03-06 08:00:00,50.7,21.9,29.88,WNW,298,3.0,6.0,32,0.00,,,0.00,meteohub,2013-03-06 13:00:00,
2013-03-06 08:05:00,43.7,17.2,29.88,ENE,69,2.0,8.0,34,0.00,,,0.00,meteohub,2013-03-06 13:05:00,
2013-03-06 08:10:00,42.3,17.2,29.88,NW,312,3.0,9.0,36,0.00,,,0.00,meteohub,2013-03-06 13:10:00,
2013-03-06 08:15:00,41.5,17.2,29.88,NNE,21,4.0,9.0,37,0.00,,,0.00,meteohub,2013-03-06 13:15:00,
2013-03-06 08:20:00,47.8,22.1,29.88,North,1,5.0,8.0,36,0.00,,,0.00,meteohub,2013-03-06 13:20:00,
2013-03-06 08:25:00,51.8,21.4,29.88,NW,319,5.0,8.0,30,0.00,,,0.00,meteohub,2013-03-06 13:25:00,
2013-03-06 08:30:00,53.6,20.5,29.88,North,357,6.0,8.0,27,0.00,,,0.00,meteohub,2013-03-06 13:30:00,
2013-03-06 08:35:00,54.7,20.5,29.88,WSW,254,3.0,8.0,26,0.00,,,0.00,meteohub,2013-03-06 13:35:00,
2013-03-06 08:40:00,56.3,21.9,29.88,North,357,0.0,8.0,26,0.00,,,0.00,meteohub,2013-03-06 13:40:00,
2013-03-06 08:45:00,57.4,21.9,29.88,North,1,6.0,8.0,25,0.00,,,0.00,meteohub,2013-03-06 13:45:00,
2013-03-06 08:50:00,58.5,22.8,29.88,NNE,21,6.0,9.0,25,0.00,,,0.00,meteohub,2013-03-06 13:50:00,
2013-03-06 08:55:00,57.9,21.4,29.88,NE,44,5.0,9.0,24,0.00,,,0.00,meteohub,2013-03-06 13:55:00,
2013-03-06 09:00:00,57.0,21.6,29.88,NE,52,4.0,11.0,25,0.00,,,0.00,meteohub,2013-03-06 14:00:00,
2013-03-06 09:05:00,56.1,20.8,29.88,NNE,20,8.0,11.0,25,0.00,,,0.00,meteohub,2013-03-06 14:05:00,
2013-03-06 09:10:00,53.1,19.0,29.88,WNW,295,3.0,11.0,26,0.00,,,0.00,meteohub,2013-03-06 14:10:00,
2013-03-06 09:15:00,48.7,16.2,29.91,WNW,298,6.0,11.0,27,0.00,,,0.00,meteohub,2013-03-06 14:15:00,
2013-03-06 09:20:00,46.2,14.9,29.91,North,357,9.0,12.0,28,0.00,,,0.00,meteohub,2013-03-06 14:20:00,
2013-03-06 09:26:00,45.3,14.2,29.91,North,10,6.0,12.0,28,0.00,,,0.00,meteohub,2013-03-06 14:26:00,
2013-03-06 09:31:00,45.3,14.9,29.91,NW,323,4.0,12.0,29,0.00,,,0.00,meteohub,2013-03-06 14:31:00,
2013-03-06 09:36:00,44.6,14.4,29.91,NNE,28,6.0,11.0,29,0.00,,,0.00,meteohub,2013-03-06 14:36:00,
2013-03-06 09:41:00,43.2,13.8,29.91,NNW,334,4.0,11.0,30,0.00,,,0.00,meteohub,2013-03-06 14:41:00,
2013-03-06 09:46:00,42.8,14.2,29.91,NNW,344,6.0,11.0,31,0.00,,,0.00,meteohub,2013-03-06 14:46:00,
2013-03-06 09:51:00,43.0,15.1,29.91,North,4,5.0,11.0,32,0.00,,,0.00,meteohub,2013-03-06 14:51:00,
2013-03-06 09:56:00,43.2,16.0,29.91,North,349,6.0,9.0,33,0.00,,,0.00,meteohub,2013-03-06 14:56:00,
2013-03-06 10:01:00,43.0,15.8,29.91,North,7,4.0,9.0,33,0.00,,,0.00,meteohub,2013-03-06 15:01:00,
2013-03-06 10:06:00,43.0,16.5,29.91,North,1,2.0,9.0,34,0.00,,,0.00,meteohub,2013-03-06 15:06:00,
2013-03-06 10:11:00,43.2,16.0,29.91,NNE,17,5.0,10.0,33,0.00,,,0.00,meteohub,2013-03-06 15:11:00,
2013-03-06 10:16:00,43.3,16.9,29.91,NE,43,3.0,10.0,34,0.00,,,0.00,meteohub,2013-03-06 15:16:00,
2013-03-06 10:21:00,43.3,16.2,29.91,North,1,8.0,10.0,33,0.00,,,0.00,meteohub,2013-03-06 15:21:00,
2013-03-06 10:26:00,43.7,17.2,29.91,North,3,5.0,15.0,34,0.00,,,0.00,meteohub,2013-03-06 15:26:00,
2013-03-06 10:31:00,44.2,16.9,29.94,WNW,286,8.0,15.0,33,0.00,,,0.00,meteohub,2013-03-06 15:31:00,
2013-03-06 10:36:00,44.1,16.2,29.94,North,357,6.0,15.0,32,0.00,,,0.00,meteohub,2013-03-06 15:36:00,
2013-03-06 10:41:00,44.2,16.2,29.94,WSW,257,5.0,12.0,32,0.00,,,0.00,meteohub,2013-03-06 15:41:00,
2013-03-06 10:46:00,44.2,16.2,29.94,SW,229,5.0,15.0,32,0.00,,,0.00,meteohub,2013-03-06 15:46:00,
2013-03-06 10:51:00,44.2,16.2,29.94,ENE,59,6.0,15.0,32,0.00,,,0.00,meteohub,2013-03-06 15:51:00,
2013-03-06 10:56:00,44.6,16.5,29.94,NNE,31,11.0,15.0,32,0.00,,,0.00,meteohub,2013-03-06 15:56:00,
2013-03-06 11:01:00,44.6,15.8,29.94,NNE,27,4.0,13.0,31,0.00,,,0.00,meteohub,2013-03-06 16:01:00,
2013-03-06 11:06:00,45.0,16.9,29.94,NNE,13,4.0,12.0,32,0.00,,,0.00,meteohub,2013-03-06 16:06:00,
2013-03-06 11:11:00,44.8,16.0,29.94,NE,42,12.0,12.0,31,0.00,,,0.00,meteohub,2013-03-06 16:11:00,
2013-03-06 11:16:00,44.8,16.0,29.94,NNE,15,9.0,16.0,31,0.00,,,0.00,meteohub,2013-03-06 16:16:00,
2013-03-06 11:21:00,44.6,15.8,29.94,NE,47,11.0,16.0,31,0.00,,,0.00,meteohub,2013-03-06 16:21:00,
2013-03-06 11:26:00,44.2,15.4,29.94,NNE,13,5.0,16.0,31,0.00,,,0.00,meteohub,2013-03-06 16:26:00,
2013-03-06 11:31:00,44.2,15.4,29.94,North,0,7.0,13.0,31,0.00,,,0.00,meteohub,2013-03-06 16:31:00,
2013-03-06 11:36:00,44.2,15.4,29.94,NE,52,6.0,13.0,31,0.00,,,0.00,meteohub,2013-03-06 16:36:00,
2013-03-06 11:41:00,44.1,15.3,29.94,NE,38,8.0,11.0,31,0.00,,,0.00,meteohub,2013-03-06 16:41:00,
2013-03-06 11:46:00,44.4,15.6,29.94,NNE,26,6.0,10.0,31,0.00,,,0.00,meteohub,2013-03-06 16:46:00,
2013-03-06 11:51:00,44.2,15.4,29.94,North,0,4.0,11.0,31,0.00,,,0.00,meteohub,2013-03-06 16:51:00,
2013-03-06 11:56:00,44.6,15.8,29.94,North,8,4.0,11.0,31,0.00,,,0.00,meteohub,2013-03-06 16:56:00,
2013-03-06 12:01:00,45.3,16.5,29.94,NE,53,4.0,11.0,31,0.00,,,0.00,meteohub,2013-03-06 17:01:00,
2013-03-06 12:06:00,46.0,17.1,29.94,NNW,346,4.0,8.0,31,0.00,,,0.00,meteohub,2013-03-06 17:06:00,
2013-03-06 12:11:00,45.7,16.0,29.94,NNE,19,0.0,8.0,30,0.00,,,0.00,meteohub,2013-03-06 17:11:00,
2013-03-06 12:16:00,45.1,15.6,29.94,North,353,4.0,8.0,30,0.00,,,0.00,meteohub,2013-03-06 17:16:00,
2013-03-06 12:21:00,45.0,15.4,29.94,NNE,14,6.0,8.0,30,0.00,,,0.00,meteohub,2013-03-06 17:21:00,
2013-03-06 12:27:00,44.8,15.3,29.94,SW,223,4.0,11.0,30,0.00,,,0.00,meteohub,2013-03-06 17:27:00,
2013-03-06 12:32:00,44.8,15.3,29.94,North,4,2.0,11.0,30,0.00,,,0.00,meteohub,2013-03-06 17:32:00,
2013-03-06 12:37:00,45.3,16.5,29.94,North,5,4.0,11.0,31,0.00,,,0.00,meteohub,2013-03-06 17:37:00,
2013-03-06 12:42:00,46.0,17.1,29.94,SW,225,2.0,6.0,31,0.00,,,0.00,meteohub,2013-03-06 17:42:00,
2013-03-06 12:47:00,46.6,17.6,29.94,North,8,10.0,10.0,31,0.00,,,0.00,meteohub,2013-03-06 17:47:00,
2013-03-06 12:52:00,46.6,16.9,29.94,North,357,4.0,10.0,30,0.00,,,0.00,meteohub,2013-03-06 17:52:00,
2013-03-06 12:57:00,46.6,16.9,29.94,NNE,16,8.0,10.0,30,0.00,,,0.00,meteohub,2013-03-06 17:57:00,
2013-03-06 13:02:00,46.6,16.9,29.94,North,357,6.0,10.0,30,0.00,,,0.00,meteohub,2013-03-06 18:02:00,
2013-03-06 13:07:00,46.2,16.5,29.94,NNE,12,6.0,10.0,30,0.00,,,0.00,meteohub,2013-03-06 18:07:00,
2013-03-06 13:12:00,46.2,16.5,29.94,NNE,15,3.0,10.0,30,0.00,,,0.00,meteohub,2013-03-06 18:12:00,
2013-03-06 13:17:00,46.2,16.5,29.94,WSW,257,3.0,8.0,30,0.00,,,0.00,meteohub,2013-03-06 18:17:00,
2013-03-06 13:22:00,46.2,17.2,29.94,NW,324,5.0,8.0,31,0.00,,,0.00,meteohub,2013-03-06 18:22:00,
2013-03-06 13:27:00,46.0,17.1,29.94,NNW,337,0.0,8.0,31,0.00,,,0.00,meteohub,2013-03-06 18:27:00,
2013-03-06 13:32:00,46.0,17.1,29.94,WNW,302,4.0,8.0,31,0.00,,,0.00,meteohub,2013-03-06 18:32:00,
2013-03-06 13:37:00,46.2,18.0,29.94,North,349,0.0,8.0,32,0.00,,,0.00,meteohub,2013-03-06 18:37:00,
2013-03-06 13:42:00,46.2,17.2,29.94,NNE,23,5.0,8.0,31,0.00,,,0.00,meteohub,2013-03-06 18:42:00,
2013-03-06 13:47:00,46.2,18.0,29.97,WSW,239,7.0,8.0,32,0.00,,,0.00,meteohub,2013-03-06 18:47:00,
2013-03-06 13:52:00,46.2,18.0,29.97,North,353,5.0,11.0,32,0.00,,,0.00,meteohub,2013-03-06 18:52:00,
2013-03-06 13:57:00,46.0,17.8,29.97,SSE,163,3.0,11.0,32,0.00,,,0.00,meteohub,2013-03-06 18:57:00,
2013-03-06 14:02:00,46.4,18.1,29.97,NE,45,5.0,10.0,32,0.00,,,0.00,meteohub,2013-03-06 19:02:00,
2013-03-06 14:07:00,46.6,17.6,29.97,NW,321,6.0,10.0,31,0.00,,,0.00,meteohub,2013-03-06 19:07:00,
2013-03-06 14:12:00,46.4,17.4,29.97,NNE,25,8.0,11.0,31,0.00,,,0.00,meteohub,2013-03-06 19:12:00,
2013-03-06 14:17:00,46.4,17.4,29.97,NNE,26,9.0,15.0,31,0.00,,,0.00,meteohub,2013-03-06 19:17:00,
2013-03-06 14:22:00,46.6,17.6,29.97,NW,320,3.0,15.0,31,0.00,,,0.00,meteohub,2013-03-06 19:22:00,
2013-03-06 14:27:00,46.6,17.6,29.97,NNE,14,4.0,12.0,31,0.00,,,0.00,meteohub,2013-03-06 19:27:00,
2013-03-06 14:32:00,46.0,16.3,29.97,NNW,337,6.0,12.0,30,0.00,,,0.00,meteohub,2013-03-06 19:32:00,
2013-03-06 14:37:00,46.0,17.1,29.97,NNW,331,8.0,12.0,31,0.00,,,0.00,meteohub,2013-03-06 19:37:00,
2013-03-06 14:42:00,46.2,17.2,29.97,North,11,5.0,12.0,31,0.00,,,0.00,meteohub,2013-03-06 19:42:00,
2013-03-06 14:47:00,46.0,17.1,29.97,NE,45,8.0,17.0,31,0.00,,,0.00,meteohub,2013-03-06 19:47:00,
2013-03-06 14:52:00,45.9,16.2,29.97,NNW,338,7.0,17.0,30,0.00,,,0.00,meteohub,2013-03-06 19:52:00,
2013-03-06 14:57:00,45.7,16.0,29.97,NNW,346,8.0,17.0,30,0.00,,,0.00,meteohub,2013-03-06 19:57:00,
2013-03-06 15:02:00,45.9,16.2,29.97,North,11,5.0,13.0,30,0.00,,,0.00,meteohub,2013-03-06 20:02:00,
2013-03-06 15:07:00,45.9,16.9,29.97,NW,308,4.0,9.0,31,0.00,,,0.00,meteohub,2013-03-06 20:07:00,
2013-03-06 15:12:00,45.9,16.9,29.97,NNW,340,4.0,9.0,31,0.00,,,0.00,meteohub,2013-03-06 20:12:00,
2013-03-06 15:17:00,46.0,17.1,30.00,NE,42,8.0,9.0,31,0.00,,,0.00,meteohub,2013-03-06 20:17:00,
2013-03-06 15:22:00,46.4,17.4,30.00,North,6,6.0,9.0,31,0.00,,,0.00,meteohub,2013-03-06 20:22:00,
2013-03-06 15:27:00,46.6,16.9,30.00,NNE,15,6.0,10.0,30,0.00,,,0.00,meteohub,2013-03-06 20:27:00,
2013-03-06 15:32:00,46.8,17.8,30.00,North,353,3.0,11.0,31,0.00,,,0.00,meteohub,2013-03-06 20:32:00,
2013-03-06 15:37:00,46.6,16.9,30.00,NNE,24,6.0,13.0,30,0.00,,,0.00,meteohub,2013-03-06 20:37:00,
2013-03-06 15:42:00,46.2,16.5,30.00,North,353,7.0,13.0,30,0.00,,,0.00,meteohub,2013-03-06 20:42:00,
2013-03-06 15:47:00,46.0,17.1,30.00,North,5,5.0,13.0,31,0.00,,,0.00,meteohub,2013-03-06 20:47:00,
2013-03-06 15:52:00,45.9,16.9,30.00,North,0,4.0,8.0,31,0.00,,,0.00,meteohub,2013-03-06 20:52:00,
2013-03-06 15:57:00,46.0,17.1,30.00,WSW,254,4.0,8.0,31,0.00,,,0.00,meteohub,2013-03-06 20:57:00,
2013-03-06 16:02:00,45.9,16.9,30.00,ENE,70,8.0,8.0,31,0.00,,,0.00,meteohub,2013-03-06 21:02:00,
2013-03-06 16:07:00,45.7,16.7,30.00,NNE,22,4.0,9.0,31,0.00,,,0.00,meteohub,2013-03-06 21:07:00,
2013-03-06 16:12:00,45.7,17.4,30.00,North,357,3.0,9.0,32,0.00,,,0.00,meteohub,2013-03-06 21:12:00,
2013-03-06 16:17:00,45.5,17.4,30.00,NNE,32,5.0,9.0,32,0.00,,,0.00,meteohub,2013-03-06 21:17:00,
2013-03-06 16:22:00,45.5,17.4,30.00,NE,37,5.0,9.0,32,0.00,,,0.00,meteohub,2013-03-06 21:22:00,
2013-03-06 16:27:00,45.5,17.4,30.00,NE,48,8.0,9.0,32,0.00,,,0.00,meteohub,2013-03-06 21:27:00,
2013-03-06 16:32:00,45.5,17.4,30.00,NNE,23,6.0,8.0,32,0.00,,,0.00,meteohub,2013-03-06 21:32:00,
2013-03-06 16:37:00,45.5,17.4,30.00,NNE,14,4.0,8.0,32,0.00,,,0.00,meteohub,2013-03-06 21:37:00,
2013-03-06 16:42:00,45.3,17.2,30.00,NE,35,6.0,8.0,32,0.00,,,0.00,meteohub,2013-03-06 21:42:00,
2013-03-06 16:47:00,45.1,17.8,30.03,East,85,2.0,8.0,33,0.00,,,0.00,meteohub,2013-03-06 21:47:00,
2013-03-06 16:52:00,45.1,17.8,30.03,ENE,63,3.0,7.0,33,0.00,,,0.00,meteohub,2013-03-06 21:52:00,
2013-03-06 16:57:00,45.1,17.8,30.03,North,353,3.0,7.0,33,0.00,,,0.00,meteohub,2013-03-06 21:57:00,
2013-03-06 17:02:00,45.1,17.8,30.03,NNE,25,5.0,6.0,33,0.00,,,0.00,meteohub,2013-03-06 22:02:00,
2013-03-06 17:07:00,45.0,17.6,30.03,NNE,23,6.0,9.0,33,0.00,,,0.00,meteohub,2013-03-06 22:07:00,
2013-03-06 17:12:00,44.8,17.4,30.03,ENE,61,0.0,9.0,33,0.00,,,0.00,meteohub,2013-03-06 22:12:00,
2013-03-06 17:17:00,44.8,17.4,30.03,North,353,4.0,9.0,33,0.00,,,0.00,meteohub,2013-03-06 22:17:00,
2013-03-06 17:22:00,44.6,17.2,30.03,North,10,6.0,9.0,33,0.00,,,0.00,meteohub,2013-03-06 22:22:00,
2013-03-06 17:27:00,44.6,17.2,30.03,ENE,77,6.0,8.0,33,0.00,,,0.00,meteohub,2013-03-06 22:27:00,
2013-03-06 17:32:00,44.6,17.2,30.03,ENE,57,6.0,8.0,33,0.00,,,0.00,meteohub,2013-03-06 22:32:00,
2013-03-06 17:37:00,44.4,17.8,30.03,ENE,69,5.0,8.0,34,0.00,,,0.00,meteohub,2013-03-06 22:37:00,
2013-03-06 17:42:00,44.2,16.9,30.03,ENE,71,5.0,8.0,33,0.00,,,0.00,meteohub,2013-03-06 22:42:00,
2013-03-06 17:47:00,44.1,17.4,30.06,NE,37,8.0,14.0,34,0.00,,,0.00,meteohub,2013-03-06 22:47:00,
2013-03-06 17:52:00,43.9,17.2,30.06,NE,51,6.0,14.0,34,0.00,,,0.00,meteohub,2013-03-06 22:52:00,
2013-03-06 17:57:00,43.7,17.2,30.06,ENE,70,9.0,14.0,34,0.00,,,0.00,meteohub,2013-03-06 22:57:00,
2013-03-06 18:02:00,43.3,16.9,30.06,East,83,9.0,13.0,34,0.00,,,0.00,meteohub,2013-03-06 23:02:00,
2013-03-06 18:07:00,43.2,16.7,30.06,East,101,10.0,13.0,34,0.00,,,0.00,meteohub,2013-03-06 23:07:00,
2013-03-06 18:12:00,42.8,16.3,30.06,ENE,59,10.0,13.0,34,0.00,,,0.00,meteohub,2013-03-06 23:12:00,
2013-03-06 18:17:00,42.4,16.7,30.06,ENE,66,6.0,13.0,35,0.00,,,0.00,meteohub,2013-03-06 23:17:00,
2013-03-06 18:22:00,42.1,17.1,30.06,NE,42,8.0,13.0,36,0.00,,,0.00,meteohub,2013-03-06 23:22:00,
2013-03-06 18:27:00,41.9,16.9,30.06,NE,54,9.0,12.0,36,0.00,,,0.00,meteohub,2013-03-06 23:27:00,
2013-03-06 18:32:00,41.7,16.7,30.09,NE,55,8.0,13.0,36,0.00,,,0.00,meteohub,2013-03-06 23:32:00,
2013-03-06 18:37:00,41.4,17.1,30.09,NE,36,8.0,13.0,37,0.00,,,0.00,meteohub,2013-03-06 23:37:00,
2013-03-06 18:42:00,41.2,17.4,30.09,East,100,4.0,12.0,38,0.00,,,0.00,meteohub,2013-03-06 23:42:00,
2013-03-06 18:47:00,41.0,17.4,30.09,ESE,108,5.0,12.0,38,0.00,,,0.00,meteohub,2013-03-06 23:47:00,
2013-03-06 18:52:00,40.6,17.6,30.09,East,97,6.0,11.0,39,0.00,,,0.00,meteohub,2013-03-06 23:52:00,
2013-03-06 18:57:00,40.5,17.4,30.09,NNE,33,9.0,11.0,39,0.00,,,0.00,meteohub,2013-03-06 23:57:00,
2013-03-06 19:02:00,40.3,17.2,30.09,NE,50,6.0,11.0,39,0.00,,,0.00,meteohub,2013-03-07 00:02:00,
2013-03-06 19:07:00,40.3,17.2,30.09,East,96,9.0,12.0,39,0.00,,,0.00,meteohub,2013-03-07 00:07:00,
2013-03-06 19:12:00,39.9,16.9,30.09,East,93,4.0,13.0,39,0.00,,,0.00,meteohub,2013-03-07 00:12:00,
2013-03-06 19:17:00,39.7,16.9,30.12,NE,51,6.0,13.0,39,0.00,,,0.00,meteohub,2013-03-07 00:17:00,
2013-03-06 19:22:00,39.6,16.7,30.12,ENE,58,4.0,13.0,39,0.00,,,0.00,meteohub,2013-03-07 00:22:00,
2013-03-06 19:27:00,39.4,16.5,30.12,ESE,115,5.0,9.0,39,0.00,,,0.00,meteohub,2013-03-07 00:27:00,
2013-03-06 19:32:00,39.2,16.9,30.12,East,81,11.0,11.0,40,0.00,,,0.00,meteohub,2013-03-07 00:32:00,
2013-03-06 19:37:00,38.8,16.5,30.12,East,83,5.0,9.0,40,0.00,,,0.00,meteohub,2013-03-07 00:37:00,
2013-03-06 19:42:00,38.7,16.3,30.12,ENE,57,6.0,11.0,40,0.00,,,0.00,meteohub,2013-03-07 00:42:00,
2013-03-06 19:48:00,38.7,17.1,30.12,NNE,25,8.0,11.0,41,0.00,,,0.00,meteohub,2013-03-07 00:48:00,
2013-03-06 19:53:00,38.5,16.9,30.12,ENE,57,6.0,11.0,41,0.00,,,0.00,meteohub,2013-03-07 00:53:00,
2013-03-06 19:58:00,38.3,16.7,30.12,ENE,64,6.0,11.0,41,0.00,,,0.00,meteohub,2013-03-07 00:58:00,
2013-03-06 20:03:00,38.1,16.5,30.12,ENE,62,9.0,11.0,41,0.00,,,0.00,meteohub,2013-03-07 01:03:00,
2013-03-06 20:08:00,37.9,16.3,30.12,NE,35,6.0,11.0,41,0.00,,,0.00,meteohub,2013-03-07 01:08:00,
2013-03-06 20:13:00,37.9,16.3,30.12,ENE,57,3.0,9.0,41,0.00,,,0.00,meteohub,2013-03-07 01:13:00,
2013-03-06 20:18:00,37.8,16.2,30.12,NE,38,5.0,9.0,41,0.00,,,0.00,meteohub,2013-03-07 01:18:00,
2013-03-06 20:23:00,37.6,16.5,30.12,ENE,74,0.0,9.0,42,0.00,,,0.00,meteohub,2013-03-07 01:23:00,
2013-03-06 20:28:00,37.4,16.3,30.12,ESE,112,0.0,6.0,42,0.00,,,0.00,meteohub,2013-03-07 01:28:00,
2013-03-06 20:33:00,37.4,16.3,30.12,NNW,346,0.0,6.0,42,0.00,,,0.00,meteohub,2013-03-07 01:33:00,
2013-03-06 20:38:00,37.2,16.7,30.12,NE,47,0.0,5.0,43,0.00,,,0.00,meteohub,2013-03-07 01:38:00,
2013-03-06 20:43:00,37.0,16.7,30.12,ENE,60,4.0,4.0,43,0.00,,,0.00,meteohub,2013-03-07 01:43:00,
2013-03-06 20:48:00,37.0,16.7,30.12,ENE,67,5.0,5.0,43,0.00,,,0.00,meteohub,2013-03-07 01:48:00,
2013-03-06 20:53:00,37.0,16.7,30.12,ENE,63,6.0,8.0,43,0.00,,,0.00,meteohub,2013-03-07 01:53:00,
2013-03-06 20:58:00,37.0,17.1,30.12,East,90,5.0,8.0,44,0.00,,,0.00,meteohub,2013-03-07 01:58:00,
2013-03-06 21:03:00,36.9,16.5,30.12,East,83,5.0,9.0,43,0.00,,,0.00,meteohub,2013-03-07 02:03:00,
2013-03-06 21:08:00,36.9,17.1,30.12,SSW,192,3.0,9.0,44,0.00,,,0.00,meteohub,2013-03-07 02:08:00,
2013-03-06 21:13:00,36.9,17.1,30.12,ENE,59,3.0,9.0,44,0.00,,,0.00,meteohub,2013-03-07 02:13:00,
2013-03-06 21:18:00,36.7,16.9,30.12,ESE,103,3.0,8.0,44,0.00,,,0.00,meteohub,2013-03-07 02:18:00,
2013-03-06 21:23:00,36.7,16.9,30.12,East,96,6.0,6.0,44,0.00,,,0.00,meteohub,2013-03-07 02:23:00,
2013-03-06 21:28:00,36.5,16.7,30.12,NE,38,5.0,9.0,44,0.00,,,0.00,meteohub,2013-03-07 02:28:00,
2013-03-06 21:33:00,36.3,17.1,30.12,NE,56,6.0,9.0,45,0.00,,,0.00,meteohub,2013-03-07 02:33:00,
2013-03-06 21:38:00,36.3,17.1,30.12,NE,42,0.0,9.0,45,0.00,,,0.00,meteohub,2013-03-07 02:38:00,
2013-03-06 21:43:00,36.3,17.1,30.12,NE,45,0.0,6.0,45,0.00,,,0.00,meteohub,2013-03-07 02:43:00,
2013-03-06 21:48:00,36.1,17.4,30.15,NNE,28,3.0,6.0,46,0.00,,,0.00,meteohub,2013-03-07 02:48:00,
2013-03-06 21:53:00,36.1,17.4,30.15,NE,51,3.0,4.0,46,0.00,,,0.00,meteohub,2013-03-07 02:53:00,
2013-03-06 21:58:00,36.0,17.2,30.15,NE,38,2.0,4.0,46,0.00,,,0.00,meteohub,2013-03-07 02:58:00,
2013-03-06 22:03:00,35.8,17.6,30.15,NNE,19,5.0,5.0,47,0.00,,,0.00,meteohub,2013-03-07 03:03:00,
2013-03-06 22:08:00,35.8,17.6,30.15,NE,42,0.0,5.0,47,0.00,,,0.00,meteohub,2013-03-07 03:08:00,
2013-03-06 22:13:00,35.8,17.6,30.15,NE,54,0.0,5.0,47,0.00,,,0.00,meteohub,2013-03-07 03:13:00,
2013-03-06 22:18:00,35.6,17.4,30.15,East,87,4.0,5.0,47,0.00,,,0.00,meteohub,2013-03-07 03:18:00,
2013-03-06 22:23:00,35.6,17.4,30.15,East,96,4.0,5.0,47,0.00,,,0.00,meteohub,2013-03-07 03:23:00,
2013-03-06 22:28:00,35.4,17.6,30.15,NE,47,3.0,6.0,48,0.00,,,0.00,meteohub,2013-03-07 03:28:00,
2013-03-06 22:33:00,35.4,17.6,30.15,NE,34,3.0,8.0,48,0.00,,,0.00,meteohub,2013-03-07 03:33:00,
2013-03-06 22:38:00,35.4,17.6,30.15,NNE,23,0.0,8.0,48,0.00,,,0.00,meteohub,2013-03-07 03:38:00,
2013-03-06 22:43:00,35.2,17.6,30.15,NE,52,0.0,5.0,48,0.00,,,0.00,meteohub,2013-03-07 03:43:00,
2013-03-06 22:48:00,35.1,17.4,30.15,NE,52,0.0,4.0,48,0.00,,,0.00,meteohub,2013-03-07 03:48:00,
2013-03-06 22:53:00,35.1,17.4,30.15,ENE,62,0.0,3.0,48,0.00,,,0.00,meteohub,2013-03-07 03:53:00,
2013-03-06 22:59:00,34.9,17.6,30.15,ENE,62,0.0,3.0,49,0.00,,,0.00,meteohub,2013-03-07 03:59:00,
2013-03-06 23:04:00,34.9,17.6,30.15,ENE,62,0.0,0.0,49,0.00,,,0.00,meteohub,2013-03-07 04:04:00,
2013-03-06 23:09:00,34.9,17.6,30.15,ENE,62,0.0,0.0,49,0.00,,,0.00,meteohub,2013-03-07 04:09:00,
2013-03-06 23:14:00,34.5,17.2,30.15,ENE,62,0.0,0.0,49,0.00,,,0.00,meteohub,2013-03-07 04:14:00,
2013-03-06 23:19:00,34.2,17.4,30.15,ENE,62,0.0,0.0,50,0.00,,,0.00,meteohub,2013-03-07 04:19:00,
2013-03-06 23:24:00,34.0,17.2,30.15,ENE,62,0.0,0.0,50,0.00,,,0.00,meteohub,2013-03-07 04:24:00,
2013-03-06 23:29:00,33.6,16.9,30.15,ENE,62,0.0,0.0,50,0.00,,,0.00,meteohub,2013-03-07 04:29:00,
2013-03-06 23:34:00,33.6,17.4,30.15,ENE,62,0.0,0.0,51,0.00,,,0.00,meteohub,2013-03-07 04:34:00,
2013-03-06 23:39:00,33.3,17.1,30.15,ENE,62,0.0,0.0,51,0.00,,,0.00,meteohub,2013-03-07 04:39:00,
2013-03-06 23:44:00,33.1,16.9,30.15,ENE,62,0.0,0.0,51,0.00,,,0.00,meteohub,2013-03-07 04:44:00,
2013-03-06 23:49:00,33.1,17.4,30.15,ENE,62,0.0,0.0,52,0.00,,,0.00,meteohub,2013-03-07 04:49:00,
2013-03-06 23:54:00,33.1,17.4,30.15,ENE,62,0.0,0.0,52,0.00,,,0.00,meteohub,2013-03-07 04:54:00,
2013-03-06 23:59:00,32.7,17.1,30.15,ENE,62,0.0,3.0,52,0.00,,,0.00,meteohub,2013-03-07 04:59:00,